Flag for U.S.A. Weather past 2 weeks in Angels Camp, California, U.S.A.

Now
88 °F

Sunny.


Feels Like: 86 °F
Forecast: 57 / 90 °F
Wind: 13 mph from North

Location: Modesto City-County-Sham Field

Current Time: Jul 7, 2015 at 4:04:41 PM

Latest Report: Jul 7, 2015 at 2:53 PM


Visibility: 10 mi

Pressure: 29.86 "Hg

Humidity: 33%

Dew point: 55 °F

Location of Angels CampLocation

Historic Weather in Angels Camp — Graph

°F

Angels Camp temperature yesterday

Maximum temperature yesterday: 93 °F (at 3:53 PM)
Minimum temperature yesterday: 64 °F (at 4:53 AM)
Average temperature yesterday: 77 °F

Past Weeks' High & Low Weather Summary

 TemperatureHumidityPressure
High104 °F (Jun 26, 3:53 PM)78% (Jun 29, 5:53 AM)30.02 "Hg (Jun 29, 5:53 AM)
Low63 °F (Jun 23, 4:53 AM)11% (Jun 22, 1:53 PM)29.70 "Hg (Jul 4, 5:53 PM)
Average83 °F36%29.86 "Hg
* Reported Jun 22 1:53 PM — Jul 7 1:53 PM, Angels Camp, Weather by CustomWeather, © 2015

Note: Actual official high and low records may vary slightly from our data, if they occured in-between our weather recording intervals... More about our weather records

Advertising

Angels Camp weather history for previous 24 hours

 ConditionsComfort  
Time TempWeatherWind HumidityBarometerVisibility
1:53 PM
Tue, Jul 7
86 °FSunny.13 mph33%29.89 "Hg10 mi
12:53 PM84 °FSunny.10 mph36%29.92 "Hg10 mi
11:53 AM80 °FSunny.7 mph44%29.94 "Hg10 mi
10:53 AM76 °FSunny.7 mph50%29.96 "Hg10 mi
9:53 AM74 °FSunny.9 mph52%29.98 "Hg10 mi
8:53 AM70 °FSunny.8 mph64%29.99 "Hg10 mi
7:53 AM69 °FSunny.8 mph66%29.98 "Hg10 mi
6:53 AM66 °FSunny.8 mph70%29.97 "Hg10 mi
5:53 AM65 °FClear.8 mph73%29.96 "Hg10 mi
4:53 AM65 °FClear.6 mph73%29.94 "Hg10 mi
3:53 AM66 °FClear.7 mph70%29.94 "Hg10 mi
2:53 AM67 °FClear.N/A68%29.95 "Hg10 mi
1:53 AM68 °FClear.10 mph63%29.95 "Hg10 mi
12:53 AM70 °FClear.9 mph59%29.95 "Hg10 mi
11:53 PM
Mon, Jul 6
72 °FClear.13 mph53%29.94 "Hg10 mi
10:53 PM75 °FClear.12 mph45%29.94 "Hg10 mi
9:53 PM77 °FClear.13 mph40%29.93 "Hg10 mi
8:53 PM79 °FSunny.12 mph38%29.92 "Hg10 mi
7:53 PM82 °FSunny.14 mph35%29.91 "Hg10 mi
6:53 PM86 °FSunny.17 mph31%29.91 "Hg10 mi
5:53 PM90 °FSunny.16 mph27%29.90 "Hg10 mi
4:53 PM91 °FSunny.17 mph26%29.91 "Hg10 mi
Weather by CustomWeather, © 2015

See weather overviewHow to use our weather pages